Weather in Ankara

Turkey     39°55′14″N   32°51′14″E
temp.,
°C
wind,
m/s
gust,
m/s
humid.,
%
clouds,
%
prec.,
mm/h
press.,
hPa
HPBL,
m
18 april, sun
sun1800:00+14ese2266100 0.0 101515
03:00+12ssw2255100 0.0 101511
06:00+13sw3355100 0.1 101729
09:00+14ssw31073100 0.6 1018513
12:00+17sw81460100 0.4 10181490
15:00+21wsw102043100 0.6 10162406
18:00+15wsw51073100 0.9 1020426
21:00+12sw227892 1.0 101912
19 april, mon
mon1900:00+11s2279100 0.0 101911
03:00+11w1181100 0.0 101810
06:00+10n118397 0.0 101610
09:00+15wnw1164100 0.0 1016266
12:00+19s1348100 0.0 1013950
15:00+21nw4439100 0.0 10111405
18:00+20wnw124422 0.0 1008398
21:00+16e2258100 0.0 100613
20 april, tue
tue2000:00+16sse2251100 0.0 100415
03:00+12wsw3476100 0.0 100673
06:00+9sw2392100 0.0 100866
09:00+12w510514 0.0 10091407
12:00+16wsw913290 0.0 10092154
15:00+17w1013265 0.0 10092606
18:00+15wnw810365 0.0 10102405
21:00+10nw36540 0.0 1013125
21 april, wed
wed2100:00+8w11645 0.0 101512
03:00+6nw11770 0.0 101610
06:00+5w11853 0.0 101710
09:00+9wsw12665 0.0 1018585
12:00+13wsw234224 0.0 10161605
15:00+16wsw55295 0.0 10152393
18:00+15wsw45286 0.0 10152474
21:00+10nw1146100 0.0 101710
22 april, thu
thu2200:00+9nne22588 0.0 101922
03:00+7nnw11685 0.0 102010
06:00+6n11755 0.0 102010
09:00+11nw11544 0.0 1020491
12:00+15wsw34355 0.0 10202105
15:00+17w44267 0.0 10192656
18:00+16w43230 0.0 10182239
21:00+11n22440 0.0 102014